Regional Weather Roundup
Issued by NWS Pendleton, OR

Home | Current Version | Previous Version | Text Only | Print | Product List | Glossary On
Versions: 1 2 3 4 5 6 7 8 9 10 11 12 13 14 15 16 17 18 19 20 21 22 23 24 25 26 27 28 29 30 31 32 33 34 35 36 37 38 39 40 41 42 43 44 45 46 47 48 49 50
000
ASUS46 KPDT 212210
RWRPDT
PENDLETON REGIONAL WEATHER ROUNDUP
NATIONAL WEATHER SERVICE PENDLETON OREGON
300 PM PDT SAT MAY 21 2022

NOTE: FAIR INDICATES FEW OR NO CLOUDS BELOW 12,000 FEET WITH NO
SIGNIFICANT WEATHER AND/OR OBSTRUCTIONS TO VISIBILITY.

# INDICATES UNOFFICIAL STATION AND DATA

WAZ520-212310-
EAST SLOPES OF WASHINGTON CASCADES

CITY            SKY/WX      TMP DP  RH  WIND    PRES   REMARKS
#BULLFROG       N/A         59  37  44  S1      N/A
#CLE ELUM HS    N/A         61  36  39  CALM    30.10F
#ELK HTS DOT    N/A         58  58  100 W1      N/A
#GLENWOOD       N/A         63  40  43  NW3     30.16S
#NILE           N/A         55  40  57  W5      29.51S
#TROUT LAKE 1NE N/A         55  42  61  CALM    30.17F
#TROUT LAKE 1E  N/A         55  46  72  NW1     30.17F
$$

WAZ521-212310-
SIMCOE HIGHLANDS

CITY            SKY/WX      TMP DP  RH  WIND    PRES   REMARKS
#SATUS PASS DOT N/A         46  42  86  NE3     N/A
#CENTERVILLE 1SWN/A         61  42  50  E2      30.09F
#LYLE 6NE       N/A         64  43  46  W6      30.12F
#PITT 4SE       N/A         59  40  49  CALM    30.16S
$$

WAZ026-212310-
KITTITAS VALLEY

CITY            SKY/WX      TMP DP  RH  WIND    PRES   REMARKS
ELLENSBURG AP   MOSUNNY     62  35  36  VRB3    30.18S
#ELLENSBURG CWU N/A         59  37  44  S6      30.12F
#ELLENSBURG 3NE N/A         59  43  55  N6      28.25S
#ELLENSBURG 1E  N/A         59  41  51  CALM    30.19S
#MANASTASH RDG  N/A         53  34  48  W3      N/A
#ROCKY CYN DOT  N/A         61  37  41  W3      N/A
#RYEGRASS DOT   N/A         50  39  66  SE9     N/A
$$

WAZ027-212310-
YAKIMA VALLEY

CITY            SKY/WX      TMP DP  RH  WIND    PRES   REMARKS
SUNNYSIDE AP    THUNDER     62  40  44  SW7     30.15S
YAKIMA AIRPORT  LGT RAIN    52  45  77  NW5     30.21R
YAKIMA-VAGABOND MOCLDY      55  40  57  SW7     30.18R
#MABTON         N/A         65  41  41  S15G24  30.14S
#NACHES 2SW     N/A         49  42  77  CALM    30.19R
#OUTLOOK DOT    N/A         61  40  46  CALM    N/A
#PARKER DOT     N/A         52  44  74  SE10    N/A
#TERRACE HTS    N/A         51  47  86  CALM    30.16R
#TOPPENISH      N/A         54  42  64  CALM    30.10R
#I82 S UMTANUM RN/A         55  36  49  W10     N/A
#UNION GAP DOT  N/A         52  47  83  VRB1    N/A
#ZILLAH DOT     N/A         56  38  51  W13     N/A
$$

WAZ028-212310-
LOWER COLUMBIA BASIN...WASHINGTON

CITY            SKY/WX      TMP DP  RH  WIND    PRES   REMARKS
HANFORD         N/A         66  34  30  N5      30.11F
PASCO           FAIR        71  39  31  VRB7    30.14F
PROSSER AWOS    N/A         61  43  51  SW9     30.20R
RICHLAND AWOS   PTCLDY      70  38  31  N3      30.14F
#BASIN CITY 5SW N/A         67  44  43  N7      30.13F
#BENTON CITY    N/A         66  40  38  CALM    30.04F
#CONNELL 5N     N/A         66  41  40  N6      30.14S
#ELTOPIA 6NW    N/A         70  41  35  CALM    29.11F
#KAHLOTUS       N/A         62  37  39  N8      30.12F
#KENNEWICK 3S   N/A         70  45  41  CALM    30.13F
#PROSSER DOT    N/A         62  38  41  CALM    N/A
#SAGEMOOR 2W    N/A         66  46  48  N1      30.12F
#TOUCHET 2S     N/A         66  45  47  CALM    30.11S
$$

WAZ029-212310-
FOOTHILLS OF THE BLUES...WASHINGTON

CITY            SKY/WX      TMP DP  RH  WIND    PRES   REMARKS
WALLA WALLA AP  MOCLDY      62  38  41  W7      30.13F
#CLYDE 6NW      N/A         64  37  37  W5      30.10F
#DELANEY DOT    N/A         65  37  35  W12     N/A
#LOWDEN 2SE     N/A         68  43  40  CALM    30.09F
#PRESCOTT       N/A         66  41  40  NW2     30.11F
#WALLA WALLA 5E N/A         67  46  47  W3      N/A
#WHITMAN MISSIONN/A         66  46  48  NW1     30.10F
$$

WAZ030-212310-
BLUE MOUNTAINS...WASHINGTON

CITY            SKY/WX      TMP DP  RH  WIND    PRES   REMARKS
$$

ORZ009-041-WAZ024-212310-
COLUMBIA RIVER GORGE

CITY            SKY/WX      TMP DP  RH  WIND    PRES   REMARKS
HOOD RIVER AP   MOCLDY      64  37  37  NW14    30.12F
THE DALLES AP   FAIR        73  38  28  VRB6    30.11F
#CELILO DOT     N/A         74  41  30  N3      N/A
#LYLE           N/A         69  39  33  S5      30.12F
#RUFUS DOT      N/A         67  36  32  E5      N/A

$$

ORZ510-212310-
NORTH CENTRAL OREGON

CITY            SKY/WX      TMP DP  RH  WIND    PRES   REMARKS
#ANTELOPE       N/A         60  36  41  CALM    29.98S
#COW CYN RST AREN/A         58  25  28  E2      N/A
#DUFUR          N/A         59  40  49  W3      30.10S
#DUFUR 9E       N/A         58  38  47  SE2     30.18F
#GRASS VALLEY 1SN/A         62  40  44  NE2     30.07S
#KENT DOT       N/A         60  27  28  CALM    N/A
#SHANIKO 5WSW   N/A         58  28  32  NW9     N/A
#WAPANITIA AIRPON/A         64  34  33  NE2     30.13F
#WASCO DOT      N/A         66  36  33  E6      N/A
#WASCO 5NE      N/A         61  40  46  E8      30.11F
$$

ORZ511-212310-
CENTRAL OREGON

CITY            SKY/WX      TMP DP  RH  WIND    PRES   REMARKS
BEND AIRPORT    MOSUNNY     63  25  23  N8      30.12S
MADRAS AIRPORT  PTCLDY      64  30  28  N8      30.13F
PRINEVILLE AP   MOCLDY      63  25  23  N12     30.10S
REDMOND AIRPORT FAIR        66  28  24  CALM    30.10S
#ASHWOOD SCHOOL N/A         62  33  34  CALM    30.06S
#BEND-KIM LN    N/A         60  32  35  CALM    30.03S
#CULVER         N/A         63  28  26  NW5     29.54F
#PRINEVILLE     N/A         64  27  24  CALM    30.16S

$$


ORZ509-212310-
EAST SLOPES OF OREGON CASCADES

CITY            SKY/WX      TMP DP  RH  WIND    PRES   REMARKS
SISTERS AWOS    N/A         61  30  31  CALM    30.06F
SUNRIVER AWOS   MOSUNNY     57  27  31  NE8     30.14S
#BLUE BOX PASS  N/A         51  N/A N/A SW1     N/A
#CAMP SHERMAN   N/A         64  27  24  VRB1    30.14S
#LA PINE DOT    N/A         60  23  24  N8      N/A
#LAVA BUTTE DOT N/A         60  24  25  CALM    N/A
#SISTERS ODOT   N/A         62  25  24  NE2     N/A
#TUMALO 3W      N/A         57  29  34  N3      29.97R
#WANOGA BUTTE D N/A         44  30  58  N6      N/A

$$

ORZ044-212310-
LOWER COLUMBIA BASIN...OREGON

CITY            SKY/WX      TMP DP  RH  WIND    PRES   REMARKS
HERMISTON       MOSUNNY     67  37  33  E7      30.14S
#BOARDMAN SCHOOLN/A         67  44  43  NW2     30.09F
#ECHO 8SW       N/A         66  43  43  W2      30.16F
#I-84 EX 198 DOTN/A         64  41  43  E7      N/A
#UMATILLA       N/A         72  41  33  CALM    30.10F
$$

ORZ507-212310-
NORTHERN FOOTHILLS OF THE BLUES

CITY            SKY/WX      TMP DP  RH  WIND    PRES   REMARKS
PENDLETON AIRPT PTCLDY      67  34  29  N9      30.14S
#CAYUSE         N/A         61  41  48  NE6     30.12S
#HELIX SCHOOL   N/A         59  40  49  CALM    30.14F
#HELIX 3N       N/A         59  41  51  CALM    30.15S
#HOLDMAN 5SE    N/A         62  42  48  E3      30.13F
#HOLDMAN 6E     N/A         61  41  48  CALM    29.93S
#M-FREEWATER 5SEN/A         65  44  46  CALM    30.12F
#PDT SUNRIDGE   N/A         64  39  40  NE3     30.10S
#PENDLETON 6SE  N/A         65  43  45  NW3     30.08F
#TUTUILLA       N/A         63  42  46  N6      30.19S
#UMAPINE 2E     N/A         66  46  48  W1      30.12F

$$

ORZ508-212310-
SOUTHERN FOOTHILLS OF THE BLUES

CITY            SKY/WX      TMP DP  RH  WIND    PRES   REMARKS
LEXINGTON       MOSUNNY     64  37  37  N8      30.17S
#AJAX           N/A         60  38  44  N8      30.13S
#HEPPNER EOC    N/A         62  39  43  CALM    30.07S
#HEPPNER 4NE    N/A         57  38  49  N7      30.14S
#OLEX 4N        N/A         63  40  43  E9      30.12F
#RUGGS 2SW      N/A         58  37  45  NE8     30.17S

$$

ORZ502-503-212310-
BLUE MOUNTAINS

CITY            SKY/WX      TMP DP  RH  WIND    PRES   REMARKS
MEACHAM         FAIR        54  34  47  VRB3    30.14S
#BATTLE MTN DOT N/A         49  30  48  N5      N/A
#LADD CYN SMT   N/A         48  36  63  CALM    N/A
#LADD CREEK ODOTN/A         47  35  63  W8      N/A
#N POWDER DOT   N/A         58  33  39  NW8     N/A
#TOLLGATE       N/A         46  36  68  CALM    30.15S
#TROY SCHOOL    N/A         61  41  48  S6      29.97F
#WESTON 4E      N/A         57  41  55  CALM    30.11S
$$

ORZ505-212310-
JOHN DAY BASIN

CITY            SKY/WX      TMP DP  RH  WIND    PRES   REMARKS
JOHN DAY        MOCLDY      57  31  37  E5      30.11R
#DAYVILLE SCHOOLN/A         60  26  27  W12     30.04R
#MITCHELL 8NW   N/A         55  30  38  W2      30.13S
#MONUMENT HS    N/A         69  29  22  W7      29.94F
#MT. VERNON 5SE N/A         57  30  35  N8      30.11S
$$

ORZ506-212310-
OCHOCO AND JOHN DAY HIGHLANDS

CITY            SKY/WX      TMP DP  RH  WIND    PRES   REMARKS
#BUCK CREEK DOT N/A         50  32  50  NW14    N/A
#HORSE RIDGE DO N/A         56  23  28  N10     N/A
#KEYES SMT DOT  N/A         50  28  42  W3      N/A
#PAULINA ODOT   N/A         59  26  28  NW7     N/A
#PRAIRIE CITY   N/A         51  36  56  N2      30.09R
#SENECA 9NW     N/A         53  34  48  S2      30.08F
$$

ORZ049-212310-
GRANDE RONDE VALLEY

CITY            SKY/WX      TMP DP  RH  WIND    PRES   REMARKS
LA GRANDE       MOCLDY      56  35  45  VRB6    30.12R
#COVE 6NW       N/A         61  35  38  N5      30.10S
#ELGIN 1E       N/A         65  38  37  E6      N/A
#IMBLER SCHOOL  N/A         59  37  44  W2      30.06S
#ISLAND CITY 4N N/A         67  45  45  CALM    30.14F
#LADD CYN DOT   N/A         51  37  59  S18     N/A
#UNION 1S       N/A         56  40  55  CALM    30.10S
$$

ORZ050-212310-
WALLOWA COUNTY

CITY            SKY/WX      TMP DP  RH  WIND    PRES   REMARKS
JOSEPH AIRPORT  LGT RAIN    43  36  76  MISG    30.20R
#ENTERPRISE HS  N/A         47  40  76  S1      30.06R
#JOSEPH 3N      N/A         44  34  68  CALM    30.21R
#LOSTINE        N/A         51  40  66  NE7     29.96S
#LOSTINE 3SE    N/A         48  39  71  S7      30.26S
#MT HOWARD 8000 N/A         27  23  85  N2      30.09R
#WALLOWA SCHOOL N/A         56  39  53  E1      30.14R



$$


USA.gov is the U.S. government's official web portal to all federal, state and local government web resources and services.